Regional Weather Roundup
Issued by NWS

Home | Current Version | Previous Version | Graphics & Text | Print | Product List | Glossary On
Versions: 1 2 3 4 5 6 7 8 9 10 11 12 13 14 15 16 17 18 19 20 21 22 23 24 25 26 27 28 29 30 31 32 33 34 35 36 37 38 39 40 41 42 43 44 45 46 47 48 49 50
957
ASUS44 KJAN 302310
RWRMS

MISSISSIPPI HOURLY WEATHER ROUNDUP
NATIONAL WEATHER SERVICE JACKSON MS
500 PM CST FRI JAN 30 2015

NOTE: "FAIR: INDICATES FEW OR NO CLOUDS BELOW 12,000 FEET WITH NO
SIGNIFICANT WEATHER AND/OR OBSTRUCTIONS TO VISIBILITY.

MSZ001>002-007>008-010>013-018>021-025>028-034>036-310000-
NORTHWEST MISSISSIPPI

CITY           SKY/WX    TMP DP  RH WIND       PRES   REMARKS
CLARKSDALE     FAIR      46  28  49 N8        30.43S
CLEVELAND      FAIR      48  32  53 N7        30.42S
GREENWOOD      PTCLDY    52  29  41 N5        30.39S
GREENVILLE     PTCLDY    49  29  46 NE14      30.41S
GRENADA        FAIR      50  27  40 N3        30.41R
OLIVE BRANCH   PTCLDY    43  25  49 N7        30.43R
OXFORD         FAIR      46  21  36 N3        30.42S
TUNICA         CLEAR     46  28  49 N9        30.44S
$$

MSZ003>006-009-014>017-022>024-029>033-037>039-310000-
NORTHEAST MISSISSIPPI

CITY           SKY/WX    TMP DP  RH WIND       PRES   REMARKS
COLUMBUS AFB   CLEAR     49  24  37 N9        30.38S
CORINTH        FAIR      48  23  37 N6        30.40F
GOLDN TRIANGLE CLEAR     52  27  37 N7        30.38S
STARKVILLE     FAIR      48  30  49 N3        30.39R
TUPELO         CLEAR     47  23  38 NE8       30.40S
$$

MSZ040-058-310000-
CENTRAL MISSISSIPPI

CITY           SKY/WX    TMP DP  RH WIND       PRES   REMARKS
JACKSON INTL   MOCLDY    54  29  38 N6        30.36S
JACKSON HAWKNS PTCLDY    55  27  34 N6        30.36F
MERIDIAN KEY   PTCLDY    52  28  39 NE13      30.36R
MERIDIAN NAS   MOCLDY    52  29  41 N9        30.37S
RAYMOND        FAIR      55  50  82 MISG      30.37R
VICKSBURG      PTCLDY    51  33  50 N12       30.39R
$$

MSZ059>079-310000-
SOUTH MISSISSIPPI

CITY           SKY/WX    TMP DP  RH WIND       PRES   REMARKS
BROOKHAVEN     FAIR      54  32  43 N3        30.36R
HATTIESBURG    MOCLDY    58  27  30 N8        30.33S
MCCOMB         MOCLDY    58  29  33 VRB3      30.33S
NATCHEZ        MOCLDY    54  30  40 N7        30.37S
PINE BELT      MOCLDY    55  28  35 N5        30.34S
$$

MSZ080>082-310000-
COASTAL MISSISSIPPI

CITY           SKY/WX    TMP DP  RH WIND       PRES   REMARKS
BAY ST LOUIS   CLEAR     55  28  35 N5        30.31S
BILOXI         MOCLDY    58  33  38 N6        30.30S
PASCAGOULA     MOCLDY    57  32  38 N5        30.30S
GULFPORT       MOCLDY    58  31  35 N6        30.30S
$$



USA.gov is the U.S. government's official web portal to all federal, state and local government web resources and services.